Theta_e
325 329 329 330 329 325 324 323 321 322 324 322 318 316 319 324 316 311 327 342 330 328 336 337 340 346 341 342 345 340 343 346 344 357 368 366 363 367 372 377 383 386 386 390 390 383 379 373 365 361 361 361 361 360 359 357 355 355 355 355 358 362 367 370 371 371 371 371 369 368 366 364 362 361 358 355 355 357 357 356 354 351 352 355 355 352 350
324 327 328 330 329 326 324 324 325 324 324 322 320 321 323 325 322 321 330 338 336 332 333 333 336 343 340 340 343 341 341 343 346 355 360 355 356 364 370 375 381 384 385 388 388 387 384 377 369 363 361 362 362 359 357 355 352 353 355 354 354 357 362 367 370 371 372 371 369 367 366 364 362 361 359 355 355 356 357 357 355 352 353 356 355 352 351
321 326 329 328 327 326 323 322 326 326 324 323 321 322 324 323 323 325 327 329 332 332 334 337 337 341 343 343 345 344 344 344 345 348 347 342 347 358 366 373 377 379 382 382 384 385 383 379 373 365 362 363 361 358 355 353 352 351 353 355 354 354 358 364 368 370 371 371 370 368 366 365 362 360 359 356 355 356 357 356 354 353 354 356 355 353 352
317 324 327 325 326 326 320 319 324 325 322 322 322 323 325 322 322 324 321 319 324 331 334 335 336 338 340 343 344 346 347 346 342 343 345 345 351 357 362 372 379 378 378 378 380 378 375 375 374 368 366 365 362 358 354 351 351 351 352 355 355 354 358 364 369 371 371 372 371 369 367 365 363 361 359 357 356 355 356 356 355 354 355 356 355 354 353
316 323 325 325 324 320 316 319 325 327 326 326 325 326 327 326 324 321 317 319 329 339 337 334 334 335 336 340 341 342 348 352 349 347 345 344 348 353 360 371 378 375 371 373 375 372 369 369 371 369 369 368 364 361 356 352 350 350 353 357 356 356 360 366 371 373 372 373 372 370 368 365 363 362 360 358 358 357 358 358 357 356 355 354 354 352 351
315 322 325 323 320 315 318 326 329 330 329 328 326 325 327 328 327 326 324 327 334 337 334 334 337 339 341 346 346 342 346 354 356 355 350 345 343 344 354 368 375 374 374 373 373 372 370 369 369 368 368 368 367 364 359 354 352 350 352 359 360 359 363 367 373 374 373 373 372 370 368 366 365 364 361 361 361 360 359 359 357 356 354 353 352 350 348
316 320 322 318 315 319 326 331 332 330 329 329 329 329 330 330 329 330 331 332 334 336 334 332 338 342 342 342 345 342 340 344 350 351 350 350 347 342 352 368 375 378 381 379 375 374 372 370 371 370 370 369 367 366 364 360 359 354 352 359 362 362 366 372 376 376 374 372 371 370 369 367 366 364 362 361 361 359 358 357 357 355 353 351 350 348 345
319 318 317 317 320 327 331 334 333 331 332 331 328 326 328 330 329 331 334 336 338 338 334 331 333 338 336 333 336 338 336 337 341 340 340 344 345 343 350 366 378 383 380 376 377 375 371 371 372 371 370 369 366 366 365 364 365 360 356 362 367 369 374 376 375 374 373 371 370 369 368 367 366 363 362 362 360 358 356 355 355 354 352 351 349 346 344
320 316 315 319 324 326 329 332 335 335 336 336 332 327 331 335 335 335 337 339 338 335 335 334 332 333 334 333 333 332 332 333 336 335 335 337 339 342 345 355 371 378 374 370 375 376 374 372 371 370 369 369 368 367 365 365 367 366 366 369 373 375 377 374 371 371 370 369 368 367 366 365 364 363 362 361 359 358 356 354 354 352 351 350 348 346 344
321 318 316 320 320 321 325 332 337 338 336 337 338 333 333 338 337 335 336 337 336 335 339 343 342 336 334 335 335 333 330 331 332 332 334 335 335 338 341 345 359 373 373 370 372 375 376 372 371 370 369 370 370 369 367 368 370 371 374 376 375 377 376 372 369 369 368 367 366 365 364 363 363 362 361 360 359 358 356 355 354 352 351 350 347 346 344
321 319 318 319 319 322 331 335 337 337 335 337 337 329 327 336 339 338 338 339 338 339 343 348 349 342 335 332 331 333 332 332 331 331 332 332 331 334 336 335 349 367 373 369 369 373 374 372 371 371 371 372 373 371 370 371 371 374 378 377 376 377 375 371 368 367 366 365 364 363 362 361 360 360 360 359 359 358 357 356 354 353 352 350 348 346 344
322 322 321 321 321 329 338 337 335 336 335 337 334 323 325 342 348 345 345 346 346 347 349 350 350 346 341 335 331 331 331 331 334 337 341 341 337 337 337 334 348 367 373 371 370 370 372 372 371 372 373 373 373 372 373 373 372 373 377 377 375 375 373 370 367 366 365 364 363 362 360 359 359 359 358 358 357 355 354 353 352 351 350 348 347 346 345
323 324 323 322 325 337 345 340 336 338 337 334 327 324 334 349 349 345 347 347 347 350 351 350 351 350 346 340 337 333 329 331 340 345 348 351 346 337 334 340 356 372 374 371 368 366 369 373 372 372 375 374 373 373 375 375 373 373 375 375 373 373 372 370 366 365 365 363 361 360 358 358 357 357 356 355 353 353 352 351 350 349 349 347 346 346 345
322 325 325 322 325 336 342 338 336 337 334 328 328 336 345 348 345 345 348 347 348 350 351 350 351 349 345 342 342 340 334 337 347 350 352 355 352 345 342 350 361 369 371 368 366 367 371 373 372 373 375 375 375 377 378 377 376 375 374 372 371 371 371 369 366 365 364 362 360 357 356 356 355 354 354 353 352 351 350 349 349 349 348 346 346 346 345
323 323 324 323 326 333 335 338 338 336 334 334 341 347 346 343 344 346 345 347 351 352 352 353 353 351 348 346 347 348 345 341 345 355 359 356 351 349 352 359 364 366 367 367 367 368 370 371 372 374 375 377 378 379 378 378 376 374 372 370 369 369 369 367 365 363 362 361 358 356 356 356 354 354 353 352 351 350 349 349 349 348 346 345 344 345 345
322 319 322 327 331 333 331 336 337 336 338 345 348 347 343 343 346 346 347 351 353 352 353 355 354 354 355 355 355 357 356 350 344 351 357 356 352 349 348 356 364 366 368 371 370 368 369 370 371 373 376 378 378 378 377 375 373 371 369 367 366 366 366 364 362 361 360 360 358 357 356 356 355 354 353 351 350 349 349 349 349 348 346 345 344 343 343
328 326 330 334 338 337 335 337 339 338 339 343 342 342 343 346 349 349 351 352 350 348 350 351 351 352 353 353 354 355 355 356 355 353 354 353 351 348 345 354 363 365 369 373 372 370 371 372 372 374 376 375 376 376 374 371 369 369 367 366 365 364 363 361 360 359 359 358 357 357 356 355 354 353 352 351 350 348 347 347 346 345 344 343 342 340 339
341 341 341 340 340 339 335 336 339 338 337 338 340 342 345 347 348 348 348 349 348 348 348 349 350 350 350 351 351 352 355 358 358 357 360 361 357 355 357 361 362 363 366 369 369 370 372 373 373 373 373 372 373 373 371 370 369 367 365 364 363 362 361 359 358 358 357 356 355 355 354 353 353 351 350 349 348 346 345 344 343 343 342 340 339 338 337
344 346 346 342 341 341 338 336 337 337 337 337 340 344 345 344 344 342 341 343 344 344 345 347 349 349 349 350 351 352 354 357 356 354 357 361 361 359 359 360 362 364 366 364 365 369 371 371 371 370 369 370 371 371 371 370 368 366 363 362 360 359 358 357 355 355 355 353 353 353 352 352 351 349 347 346 345 344 343 341 341 342 341 339 339 338 337
343 343 345 343 340 340 338 338 337 337 337 338 339 341 340 338 336 335 335 336 336 337 340 342 343 344 345 348 351 352 351 352 353 352 355 359 358 352 353 358 362 364 366 365 365 367 367 367 367 368 369 369 369 369 369 368 366 364 362 360 359 357 356 355 353 353 352 352 352 351 351 350 348 347 346 344 343 342 341 339 340 341 340 339 339 338 337
342 342 342 343 343 340 338 338 338 335 335 336 336 337 336 335 334 333 331 331 331 333 335 337 338 340 341 343 346 348 347 347 349 350 355 357 354 352 355 359 360 360 361 361 362 362 363 364 366 368 369 368 368 368 368 366 364 362 360 359 358 356 355 353 352 352 351 351 351 350 347 344 343 343 343 343 342 340 339 339 340 340 340 339 337 337 336
341 343 342 342 344 344 338 335 334 331 330 331 332 333 334 334 333 332 330 330 331 332 332 332 336 339 341 340 340 340 343 346 347 349 354 356 356 356 358 359 360 362 361 360 361 362 363 364 365 366 367 366 365 364 364 363 361 359 358 358 357 355 354 352 351 351 350 348 348 347 344 340 339 338 340 341 342 339 338 338 339 339 338 336 336 337 337
340 340 341 341 343 342 337 332 330 329 327 327 328 329 330 330 329 329 328 328 330 331 330 329 331 336 339 340 339 339 339 342 345 347 350 353 357 360 361 361 363 364 364 363 363 363 360 358 358 359 360 360 361 361 361 360 359 357 357 357 355 354 352 351 350 349 347 346 346 345 342 340 339 337 336 337 337 336 337 337 336 337 338 336 335 335 336
340 340 340 339 338 335 332 330 330 329 327 326 326 325 325 326 326 325 325 326 326 328 328 328 329 331 333 336 338 339 339 340 342 345 346 348 352 357 360 361 363 363 364 363 361 358 356 354 352 352 353 356 360 361 360 359 358 357 357 356 353 352 351 350 348 347 346 345 346 345 343 341 339 337 336 334 332 332 334 335 335 335 335 335 334 334 334
339 339 337 335 333 331 331 331 330 329 327 326 326 325 325 325 325 325 325 326 325 325 325 326 327 328 329 330 332 333 336 337 338 339 342 345 348 352 355 357 358 361 362 361 359 357 355 355 356 355 356 358 360 360 360 359 358 358 357 354 351 350 349 348 347 347 346 346 345 345 343 342 341 340 338 336 333 331 330 332 333 333 332 332 333 333 332
337 336 334 333 332 331 330 329 328 327 326 326 326 325 325 325 325 324 324 324 323 324 325 325 325 326 327 328 329 328 328 331 333 334 335 337 340 344 349 353 355 357 358 358 357 357 356 356 357 357 357 357 358 357 358 357 356 355 354 351 348 348 349 348 347 347 346 344 345 344 343 342 342 342 340 340 337 332 329 329 330 329 328 329 331 331 330
336 335 334 334 332 330 329 328 327 325 325 326 326 325 323 323 324 324 324 323 323 323 324 325 326 327 326 327 328 329 327 327 329 332 333 333 334 335 340 347 352 355 356 357 357 356 356 356 355 355 356 356 355 355 355 354 354 353 352 349 348 348 348 347 347 347 345 343 343 344 344 343 342 341 341 341 339 336 332 330 329 327 325 325 327 329 329
334 332 331 331 330 328 326 325 324 323 324 325 325 323 322 322 322 322 324 324 323 323 324 325 327 328 327 326 327 328 328 326 327 330 331 331 332 333 335 340 347 352 354 355 355 355 355 354 353 354 355 354 354 354 354 353 352 351 348 348 348 348 348 347 346 345 344 342 342 344 344 343 342 340 341 340 339 337 334 332 332 329 325 323 324 326 326
329 328 327 327 327 326 325 324 324 324 324 323 323 322 323 323 323 323 324 324 324 324 325 326 326 327 328 328 327 327 328 327 327 329 330 329 331 334 335 337 343 349 351 352 353 353 353 353 353 352 352 352 353 354 353 352 351 349 348 347 348 348 347 347 345 344 343 343 342 343 343 343 342 341 340 340 339 336 334 333 333 330 324 321 322 323 323
327 325 324 324 324 324 325 325 325 325 325 324 324 324 324 324 324 325 325 326 326 325 325 326 326 325 326 328 329 329 329 328 328 330 330 329 331 334 336 337 341 345 348 350 350 350 351 352 351 350 351 350 351 352 352 351 350 349 348 348 347 346 346 344 343 343 342 342 342 342 341 341 341 340 340 340 338 335 334 334 333 329 324 323 323 322 322
325 325 325 325 324 324 324 325 325 325 324 324 325 326 326 326 327 327 328 329 329 327 325 325 325 325 326 329 330 330 329 330 330 331 331 331 333 335 336 337 338 339 343 346 347 347 348 349 349 349 349 348 348 350 351 349 348 347 346 345 344 344 344 343 342 342 341 341 341 341 340 340 340 339 339 338 337 335 335 335 333 330 328 327 327 325 323
324 324 325 326 325 324 324 325 325 325 324 324 325 325 326 327 328 328 329 330 329 328 327 326 326 327 328 330 331 332 331 330 331 332 333 335 335 333 332 334 336 336 338 342 345 346 346 346 347 348 347 345 345 346 346 345 344 344 344 343 343 343 343 343 343 342 341 340 339 339 339 338 337 337 336 335 333 334 336 336 334 332 330 329 329 327 324
324 325 325 326 326 326 325 325 324 324 324 324 325 325 324 325 327 327 328 329 329 328 329 328 328 329 329 330 332 333 332 332 333 335 335 335 335 333 331 332 334 335 336 339 343 345 346 345 346 346 345 344 343 343 342 342 342 342 342 342 343 342 342 342 341 340 338 337 337 337 337 337 336 336 335 335 335 336 337 336 334 332 331 331 331 327 324
324 324 324 324 324 324 325 325 324 324 324 323 324 324 324 323 324 325 327 327 327 327 328 329 328 328 328 328 331 333 333 334 336 337 335 334 335 334 332 331 333 335 335 336 338 341 344 344 344 343 342 342 341 340 340 340 340 339 339 339 339 338 338 339 338 337 335 335 335 335 335 336 336 335 335 336 337 336 336 335 333 332 333 333 332 328 325
322 322 322 322 322 322 323 323 323 324 323 323 323 324 324 324 324 324 324 325 325 326 327 326 326 326 326 328 329 330 331 333 335 335 334 333 332 332 332 333 335 337 336 334 335 339 342 342 342 342 341 340 338 339 338 338 337 336 335 334 334 335 336 336 335 335 335 335 336 336 335 335 335 335 335 335 335 334 333 333 332 332 333 333 332 330 327
321 321 322 322 322 322 322 322 323 323 323 324 324 323 324 324 323 323 324 324 324 325 324 324 325 325 326 328 328 327 328 330 332 333 333 334 334 333 333 334 335 336 336 336 337 339 339 339 340 341 340 338 337 338 338 336 336 335 334 333 334 334 334 334 336 337 337 337 337 337 336 336 335 334 334 334 333 333 332 332 331 331 332 332 331 329 326
320 321 322 322 322 322 322 323 323 323 324 325 325 325 325 325 325 325 325 325 325 325 325 325 326 325 325 326 326 325 327 330 332 333 334 335 336 336 335 335 334 335 335 337 338 339 339 338 338 339 338 337 337 337 338 337 336 335 334 333 333 333 334 335 336 336 336 337 337 337 336 335 335 334 333 333 332 330 330 330 329 328 330 331 330 328 326
320 321 322 322 322 323 323 323 323 323 324 325 325 325 326 326 327 327 327 326 327 327 327 327 327 327 327 327 326 327 329 331 332 333 334 335 336 336 335 335 335 335 335 336 337 338 338 338 337 337 337 336 335 335 335 336 335 335 333 333 333 333 334 334 334 334 335 336 335 335 334 333 333 332 330 330 330 329 329 329 328 327 328 330 330 328 327
321 322 322 322 323 323 324 323 323 323 324 324 324 325 325 326 326 327 327 327 327 327 328 328 328 328 329 329 329 329 330 330 331 332 333 333 334 334 334 333 333 333 333 334 335 335 336 337 337 336 335 334 334 333 332 332 333 333 332 331 332 331 332 332 332 333 334 333 332 331 330 330 330 329 328 328 328 328 328 328 328 328 328 328 328 328 327
321 322 322 322 322 323 323 322 322 323 323 324 324 324 325 325 326 326 326 326 326 327 327 328 329 328 329 329 330 330 330 330 330 330 331 331 331 332 333 332 332 331 332 332 332 332 334 335 336 336 334 333 333 331 329 330 331 331 330 330 329 328 328 329 330 331 330 329 328 328 328 328 328 327 327 327 327 327 328 328 327 327 326 326 326 326 326
321 321 322 322 322 322 322 322 323 323 323 323 323 323 324 324 325 326 326 326 326 326 327 328 328 328 328 328 328 329 329 330 330 330 330 330 331 331 331 331 331 332 332 331 330 331 331 332 333 333 333 333 333 331 329 329 331 331 330 329 329 328 328 329 329 329 328 328 327 327 326 327 327 327 327 327 327 327 327 327 326 325 325 324 324 324 324
322 322 322 322 322 322 322 323 323 323 323 323 323 323 323 323 324 324 325 325 325 325 325 326 326 327 326 326 326 327 327 328 329 329 329 330 330 330 330 330 330 330 330 329 329 330 331 332 332 332 331 330 330 330 330 330 330 330 330 329 329 328 328 328 327 327 326 327 327 326 325 326 327 327 326 326 325 325 325 325 324 323 323 322 321 321 322
322 322 322 322 322 322 322 322 322 322 322 322 322 321 321 322 323 323 323 323 323 324 324 324 325 325 325 325 325 326 326 326 326 327 327 327 328 328 328 328 328 329 328 328 328 329 330 330 330 330 330 329 328 327 328 329 328 327 327 327 327 327 327 326 326 326 326 327 327 327 326 326 326 326 325 323 323 323 323 322 321 320 320 319 318 318 319
321 321 321 321 321 322 322 322 321 321 321 321 321 320 320 321 321 322 322 322 322 321 322 322 323 324 324 324 325 325 325 325 324 325 325 325 326 327 326 326 325 326 326 327 327 327 327 326 325 325 325 325 324 323 325 326 326 324 324 325 325 326 326 325 325 325 326 326 326 326 325 324 324 323 322 321 321 320 320 319 319 318 318 317 317 317 316
320 320 320 320 320 320 320 320 320 320 320 320 320 320 320 321 321 320 321 321 320 320 320 321 321 321 322 322 323 323 323 323 323 324 324 324 324 325 325 324 324 324 324 325 326 326 323 321 320 319 319 319 319 321 322 323 323 322 321 322 322 322 323 323 323 324 324 324 323 323 323 322 322 321 320 319 319 318 317 318 318 317 316 315 315 315 314
320 319 319 319 320 319 318 318 319 319 319 318 319 319 319 319 319 319 319 320 320 320 319 319 319 319 319 319 320 320 320 320 320 320 321 323 324 323 323 322 322 322 322 324 325 325 322 319 318 318 317 316 318 320 322 321 320 319 320 319 319 319 319 320 320 321 321 321 321 321 320 320 320 319 318 318 317 317 316 316 316 315 315 314 314 314 313
319 319 319 319 319 318 318 317 318 318 319 319 320 319 318 317 317 318 318 319 319 319 318 318 318 318 318 318 317 318 318 318 317 316 317 320 322 322 322 320 319 319 321 323 324 324 322 320 319 318 316 315 317 320 321 320 319 318 319 318 318 318 318 318 318 318 318 318 318 318 318 319 318 318 318 317 316 316 315 315 314 314 314 314 313 313 313
319 318 318 318 318 318 318 318 319 320 320 320 320 319 318 317 317 317 317 317 318 319 318 317 318 318 318 317 317 317 317 317 317 316 316 317 318 319 319 319 318 318 320 321 323 322 321 319 318 318 316 315 317 319 321 320 319 318 318 318 318 318 318 317 317 317 317 317 317 317 317 318 317 317 317 316 316 315 315 314 314 314 314 313 313 313 313
318 318 318 318 318 318 318 319 320 320 320 320 319 318 318 317 317 317 317 316 317 317 317 316 317 317 317 316 317 316 316 316 316 317 317 316 316 316 317 319 320 319 318 319 320 321 320 319 318 317 317 318 318 320 320 320 320 319 318 318 318 318 317 317 317 317 317 317 317 316 316 316 316 316 316 315 315 315 315 314 314 314 314 313 313 313 312
320 319 318 318 318 319 318 318 318 318 318 318 317 317 317 317 317 317 317 316 316 317 316 316 316 316 316 316 316 316 316 316 316 316 316 316 316 316 316 316 317 317 317 317 318 319 320 320 319 318 318 319 320 320 320 320 320 320 320 319 318 318 317 317 317 316 316 317 317 316 316 316 315 315 315 315 315 315 315 314 314 314 314 314 313 313 313
321 319 318 318 318 318 318 317 317 317 317 316 316 316 316 316 316 317 316 316 316 316 316 316 316 315 315 316 316 316 316 316 316 316 315 315 315 315 315 315 315 315 316 317 318 318 320 321 320 319 320 321 321 320 320 320 320 320 320 319 319 318 317 317 317 317 316 316 316 316 316 316 315 315 315 315 315 314 314 314 315 314 314 314 314 313 312
318 317 317 317 317 317 317 316 316 316 316 316 316 316 316 315 316 316 315 315 316 315 316 316 315 315 315 315 315 315 315 316 316 315 315 315 315 315 315 315 315 315 315 316 316 316 317 318 319 320 321 321 320 319 320 320 320 319 320 319 319 318 318 317 317 317 317 316 316 316 315 315 315 315 315 315 315 315 315 315 315 314 314 314 313 313 313
Wind_Speed
25 23 20 19 18 17 18 20 22 23 24 24 23 20 20 16 12 12 10 10 12 15 15 14 10 10 11 9 10 10 9 9 9 7 12 15 14 14 13 11 11 10 10 9 10 13 14 16 22 25 27 30 31 30 32 34 34 35 37 36 35 36 36 35 35 36 36 36 37 39 39 39 39 40 40 40 39 37 36 36 36 34 32 32 35 35 33
23 26 24 23 21 18 19 21 21 21 22 25 24 22 24 22 16 16 16 13 13 15 15 18 15 8 8 9 8 9 10 12 12 7 12 13 13 14 12 10 10 9 9 9 9 11 12 13 17 22 25 28 30 30 31 33 33 33 36 37 36 36 37 36 36 36 36 35 35 37 39 40 41 41 41 40 39 37 36 36 33 32 30 30 35 37 34
16 23 24 26 24 21 21 21 20 21 22 24 24 22 21 20 18 20 22 16 11 10 11 14 15 11 9 8 9 11 12 12 13 10 10 12 11 13 13 12 12 11 10 11 10 11 12 13 15 20 23 26 29 31 32 34 34 32 35 38 37 35 35 36 36 36 36 35 35 36 39 40 40 41 39 37 36 35 34 33 31 30 29 28 32 35 33
13 17 21 25 26 23 23 22 22 24 22 20 19 18 18 17 16 18 19 16 11 10 11 12 14 16 15 12 10 10 10 13 16 14 11 10 7 10 14 12 12 13 13 13 13 13 14 15 17 20 21 23 27 30 32 34 35 33 34 38 39 37 36 36 36 37 37 36 35 36 37 38 38 37 35 32 30 30 29 28 28 28 28 27 27 28 28
11 16 19 19 19 19 19 19 21 22 21 20 17 14 16 19 18 14 12 11 7 6 9 13 15 17 17 14 12 12 10 12 15 14 12 11 10 7 11 13 13 16 16 15 15 15 16 18 22 24 24 24 26 30 32 33 35 34 32 35 38 38 36 37 37 36 36 36 34 34 35 36 34 32 31 28 27 27 26 25 24 24 24 24 24 24 24
10 16 18 14 14 15 13 13 18 21 21 22 21 18 18 20 18 13 12 13 10 7 9 13 13 12 11 9 9 12 12 9 8 9 11 13 13 13 11 14 16 16 15 14 15 17 20 24 27 28 28 27 27 29 30 30 33 35 31 32 36 37 35 35 35 34 34 35 33 33 33 31 29 28 29 27 25 24 23 20 20 20 19 20 22 22 22
9 12 14 14 15 13 10 10 15 19 21 22 21 21 21 21 19 15 13 12 11 10 12 14 10 7 9 10 8 9 13 13 10 9 9 11 15 14 10 12 16 15 13 13 14 17 22 26 26 27 28 28 28 29 29 28 31 34 31 29 32 33 31 31 31 32 34 34 32 31 30 27 26 29 29 26 22 21 18 16 16 16 16 17 19 21 20
9 9 12 13 9 8 11 14 14 15 17 19 20 20 19 19 18 14 9 8 8 8 12 14 11 9 12 14 13 12 14 15 14 13 13 13 14 13 11 11 13 14 14 15 16 19 22 24 25 26 29 30 30 31 31 29 28 30 28 25 28 29 28 28 30 34 38 35 30 28 27 25 25 28 27 22 20 19 17 15 14 15 16 15 16 18 19
10 10 11 9 7 9 13 14 11 8 7 7 7 10 13 13 13 10 5 7 11 12 11 13 14 12 11 12 13 16 18 17 16 16 18 18 15 13 12 11 11 15 18 20 21 22 22 24 27 28 29 30 30 30 31 29 27 26 24 22 26 28 26 27 30 33 37 35 30 27 26 24 23 24 22 20 19 20 20 17 15 15 16 15 16 17 17
11 10 10 9 10 11 11 11 9 5 3 2 3 4 8 8 9 10 8 8 11 12 14 15 11 10 11 10 9 14 21 23 21 19 19 19 19 17 13 10 9 15 20 22 23 25 25 25 28 29 29 30 30 28 29 28 27 25 22 22 26 26 25 27 29 30 32 33 31 29 26 24 22 20 20 20 19 19 19 18 17 16 15 16 17 17 17
9 11 10 10 10 8 8 12 12 8 4 2 2 4 7 5 7 9 9 9 9 9 10 14 12 7 9 11 9 10 17 20 21 21 20 21 22 19 16 15 12 15 21 24 23 24 24 24 27 29 29 29 28 26 26 28 28 26 24 25 27 26 24 26 28 27 28 30 30 28 24 23 21 19 18 17 16 17 16 15 15 14 14 14 16 17 17
7 9 9 8 7 4 3 7 9 7 3 3 2 6 5 2 7 8 8 8 8 8 9 9 9 8 7 8 9 12 17 19 16 11 9 13 17 17 16 18 12 15 18 19 18 19 21 23 27 30 30 28 26 25 25 28 27 27 28 30 30 28 25 25 28 29 29 28 27 24 21 20 20 19 17 16 15 13 12 12 11 11 12 12 13 13 13
8 8 8 7 6 3 5 5 6 7 5 4 6 7 2 3 5 6 7 8 8 9 9 7 6 7 8 12 13 13 18 19 11 2 7 13 13 13 14 13 10 16 16 15 16 17 22 25 27 29 29 26 24 24 25 26 27 28 31 33 32 30 27 26 27 27 26 25 23 21 20 20 20 19 18 16 15 14 13 13 13 12 12 11 11 11 12
9 8 8 8 7 6 8 8 7 8 6 6 6 3 1 3 6 7 7 8 9 9 9 7 7 10 12 15 16 14 14 12 2 6 6 11 12 8 10 10 11 14 12 14 16 17 21 24 25 27 27 23 21 22 22 23 25 28 31 32 31 31 29 26 26 26 26 27 25 23 23 24 22 21 19 18 18 18 17 17 17 15 15 13 12 11 12
8 8 8 8 6 5 9 9 8 8 7 2 2 3 2 3 6 8 8 9 10 11 11 10 11 13 15 15 14 15 16 14 3 6 3 4 7 9 9 6 13 15 11 11 15 18 22 25 25 26 25 20 19 19 18 20 25 27 30 32 32 31 29 27 26 26 27 28 26 23 24 24 22 22 22 22 22 21 20 20 20 19 17 15 13 13 13
8 9 8 6 4 6 10 10 8 8 4 4 5 3 3 5 6 7 7 10 12 12 11 11 13 14 15 16 15 15 17 17 7 5 5 3 2 5 12 7 12 15 11 10 14 18 22 24 25 25 23 20 19 18 19 22 25 27 30 31 30 28 27 26 25 23 23 24 22 21 21 19 18 19 20 20 22 21 19 20 20 19 18 17 15 14 15
6 4 2 2 3 4 7 5 3 4 4 6 6 5 5 6 8 8 7 9 11 13 11 10 12 13 13 14 15 14 16 17 11 2 2 4 7 8 13 11 10 12 10 10 12 15 18 21 21 21 23 24 21 19 21 26 28 28 29 30 28 26 25 24 24 22 21 21 22 22 21 18 17 18 16 16 18 16 13 14 15 15 14 14 13 11 12
5 3 3 1 2 1 4 5 2 2 5 7 9 9 7 7 9 10 9 9 10 11 11 10 10 12 12 11 11 12 13 15 14 12 9 3 2 4 7 7 9 11 12 13 13 13 15 18 21 22 24 25 22 22 26 29 29 29 30 29 27 26 25 24 23 21 21 21 22 22 20 17 15 16 15 14 15 15 12 10 11 11 11 11 10 10 11
4 3 4 5 7 6 3 4 5 6 9 10 10 9 9 10 11 12 12 13 13 12 13 13 11 12 13 11 9 10 12 13 14 13 10 7 8 9 8 11 13 13 13 13 14 14 14 19 23 23 24 24 23 26 29 29 28 30 31 30 28 26 25 24 22 21 20 20 20 18 17 16 14 13 14 14 14 14 12 11 11 12 12 12 12 12 12
2 2 6 8 13 13 9 8 9 10 11 12 11 11 12 13 14 15 15 16 15 14 15 16 14 14 15 14 12 11 12 12 12 11 9 8 7 6 11 12 11 11 10 11 13 13 13 18 22 22 22 24 25 27 29 28 29 31 31 29 28 26 24 22 21 21 20 20 20 18 18 17 14 13 14 14 14 12 11 12 13 14 13 13 14 14 13
1 2 4 7 9 14 13 13 14 14 13 14 14 13 13 12 13 15 16 16 16 15 16 16 15 15 14 14 14 13 11 10 10 9 5 3 1 8 6 6 11 12 11 12 13 14 15 19 21 21 23 24 25 26 26 26 28 29 28 27 26 25 23 21 20 19 19 20 21 20 17 15 14 13 12 14 16 14 10 11 14 15 14 13 13 13 14
2 4 3 3 3 9 11 13 16 16 15 16 17 15 13 13 13 14 15 15 15 16 17 16 14 12 11 13 14 13 10 8 8 8 5 2 4 4 9 16 17 16 16 15 14 15 18 19 20 21 22 22 23 23 23 24 27 28 27 25 24 23 21 21 21 21 20 20 20 19 19 19 18 15 11 13 17 16 11 11 12 13 12 10 6 5 7
3 2 4 1 3 6 8 11 14 14 13 15 17 16 15 15 15 14 15 14 14 14 15 16 16 13 10 10 12 12 11 9 7 7 8 7 7 12 15 16 15 16 17 16 15 16 17 19 20 20 20 20 21 21 21 23 25 27 26 23 22 21 21 22 23 23 22 22 20 20 21 21 20 19 17 16 17 16 12 10 10 9 8 7 5 4 5
3 3 5 5 6 9 9 10 12 11 11 13 16 16 16 16 16 15 15 14 14 13 13 14 15 14 12 10 10 10 10 11 9 6 7 10 12 15 16 15 14 14 14 15 15 14 15 17 18 18 18 19 20 19 20 22 23 25 24 22 21 21 21 24 26 24 23 24 23 22 22 21 20 20 19 17 15 13 11 10 9 9 8 6 6 5 5
2 5 7 8 12 14 11 9 11 10 10 11 13 14 14 15 15 16 15 14 13 13 13 13 13 13 13 11 10 11 10 11 13 9 8 11 14 16 16 15 14 14 14 14 14 14 16 17 18 18 18 18 18 18 19 19 21 22 21 19 19 20 21 25 27 24 22 24 25 23 24 23 19 17 16 14 12 11 11 10 9 8 8 8 8 8 8
0 6 9 11 12 12 10 9 11 11 10 11 11 12 13 15 15 16 15 14 13 14 13 13 12 13 13 12 12 12 12 12 17 15 11 12 14 15 15 14 14 15 15 15 15 15 16 17 17 17 16 15 16 17 17 18 20 21 18 16 18 22 25 27 25 21 20 24 25 24 24 23 20 17 15 14 14 14 13 10 9 8 8 9 11 11 10
2 4 8 10 10 9 9 10 10 10 9 10 11 11 12 13 14 14 14 14 14 14 14 14 13 13 14 14 14 14 13 14 16 15 13 13 15 16 17 15 14 14 14 14 15 15 15 15 15 14 14 14 14 15 16 17 19 19 17 16 19 23 25 25 22 19 20 23 22 22 23 22 20 18 16 15 16 18 15 12 11 9 9 11 13 13 12
3 5 7 9 9 10 12 11 10 10 10 9 10 9 8 10 13 13 14 14 14 13 14 16 16 13 11 13 14 13 13 14 13 12 13 15 16 18 20 18 12 12 13 12 12 12 12 13 14 13 14 14 13 14 16 16 16 15 16 17 19 20 21 21 18 16 18 20 19 20 22 20 18 17 17 15 15 15 15 14 13 12 12 14 15 15 14
7 9 11 11 11 11 12 11 11 12 11 10 10 10 8 10 12 12 12 13 13 12 12 13 15 13 11 11 12 11 10 11 12 12 13 15 16 18 20 21 15 11 12 10 9 9 10 12 13 14 12 12 13 15 16 15 14 14 15 17 17 17 19 18 15 15 18 19 17 19 20 19 17 16 16 15 15 15 15 15 15 15 16 17 17 16 15
8 10 11 11 11 12 12 12 11 12 11 11 11 11 11 11 10 9 9 11 11 11 11 10 11 12 11 10 9 10 11 12 12 13 14 16 17 18 20 21 17 11 10 9 7 7 9 12 13 11 10 11 13 15 15 15 15 14 15 16 16 17 18 17 16 17 19 20 20 20 19 18 17 15 14 15 17 17 17 18 17 16 16 16 16 15 16
10 11 10 10 11 12 12 11 10 11 10 10 11 12 11 11 9 8 8 8 9 9 10 9 8 9 9 8 8 11 13 13 13 12 13 15 16 18 19 19 15 10 10 11 9 6 7 10 10 8 7 8 10 12 13 14 14 13 15 17 17 18 19 19 18 17 17 19 21 20 17 16 16 16 16 16 16 14 17 19 17 14 15 14 13 14 18
10 10 10 9 10 11 11 10 9 10 10 10 11 11 10 9 8 7 7 7 7 7 8 8 8 8 8 9 9 9 8 9 12 13 11 12 14 16 18 17 14 12 13 14 12 7 5 7 8 6 5 7 9 10 11 12 13 14 16 18 19 21 22 20 18 17 17 18 19 17 14 14 14 15 15 14 13 13 16 17 14 13 14 14 13 15 20
8 9 9 9 9 10 11 10 9 10 10 10 10 9 8 8 8 6 5 5 5 4 3 3 5 7 7 7 8 9 6 4 6 9 10 11 13 15 15 15 13 13 12 13 14 11 5 8 7 4 3 8 11 12 12 12 13 14 15 17 20 22 21 19 18 18 17 16 16 15 14 13 13 13 12 12 12 12 14 15 14 14 14 13 14 16 20
8 8 8 8 9 10 10 9 9 9 9 9 9 8 8 8 8 6 5 4 4 4 3 2 6 8 5 3 3 4 4 3 2 4 6 9 10 10 9 9 8 8 8 9 12 11 4 7 6 4 5 8 11 13 14 13 13 14 16 17 19 18 17 18 19 18 16 14 14 14 13 12 12 12 12 12 12 12 12 12 13 13 13 13 14 16 18
8 8 8 8 9 9 9 9 9 9 9 9 9 9 9 8 8 7 5 4 4 6 6 3 2 2 4 4 1 2 3 3 2 3 5 6 5 4 4 5 5 5 5 5 7 6 5 5 4 4 6 7 9 12 13 13 13 15 16 17 16 14 14 15 16 14 13 13 13 12 11 11 11 11 12 12 12 12 12 11 10 12 15 14 12 13 16
8 8 8 8 8 9 9 9 9 10 9 9 9 9 9 9 8 7 7 7 7 6 5 4 3 2 2 3 4 4 5 4 3 4 6 7 6 3 2 1 2 2 1 1 6 10 11 9 6 4 4 5 7 8 8 10 12 14 15 14 14 12 12 13 12 11 11 11 11 11 12 12 12 11 10 10 9 9 9 9 8 10 16 16 11 12 16
9 8 7 7 7 8 8 7 7 8 8 8 8 7 8 9 9 9 10 10 10 9 8 7 6 5 4 4 5 6 7 8 8 7 7 8 10 11 10 8 7 5 3 4 8 11 11 11 12 12 12 13 12 10 9 10 12 12 12 12 11 11 11 11 11 11 11 10 11 13 15 14 12 9 8 8 8 7 8 8 7 7 13 16 13 12 16
9 8 7 7 7 6 6 6 7 9 9 8 7 8 9 9 10 10 11 11 11 12 12 12 11 9 8 7 7 8 9 10 10 10 10 10 11 13 13 12 12 10 8 8 9 9 9 11 13 14 15 16 15 14 14 14 12 9 8 9 10 10 11 10 9 9 9 8 10 11 11 9 9 8 7 7 7 6 6 7 6 6 8 13 14 13 13
8 7 7 7 6 5 5 6 8 9 9 7 7 8 10 10 10 10 11 12 14 14 14 13 11 10 9 8 8 9 11 10 10 10 10 10 11 13 13 13 14 13 11 11 11 10 9 10 11 12 13 13 13 14 15 15 12 10 9 9 9 9 10 9 9 9 8 7 7 8 9 8 8 8 7 6 6 6 5 6 6 5 6 8 10 12 12
7 7 7 7 6 5 5 6 8 9 10 10 9 9 10 10 11 11 11 12 13 13 11 10 9 8 8 8 7 8 9 10 11 11 10 9 10 11 10 11 13 13 13 12 12 11 10 10 11 12 12 10 9 9 11 12 11 10 9 8 8 7 7 8 8 9 8 7 7 8 7 7 7 6 6 6 6 6 5 5 5 6 6 7 9 11 11
8 8 8 8 8 7 7 7 8 10 11 11 11 11 11 11 11 10 10 10 11 11 10 10 8 7 8 10 10 9 10 11 12 13 13 11 8 7 6 8 12 13 13 12 12 11 11 12 12 12 11 9 7 6 7 8 7 7 7 6 4 4 5 6 7 8 8 7 7 7 6 6 6 6 6 6 6 5 6 6 7 8 10 12 13 13 12
8 8 9 9 9 8 9 9 9 10 11 11 12 13 13 12 12 11 11 11 11 11 11 11 11 10 10 11 11 11 12 12 12 14 15 13 10 7 6 8 12 14 14 13 13 12 11 11 11 11 10 9 7 5 5 6 7 8 8 8 7 7 6 7 7 7 6 6 6 6 6 6 6 6 6 6 5 6 8 9 10 12 14 13 12 12 14
8 8 9 9 8 9 9 9 9 9 10 11 12 13 13 12 12 12 12 12 12 11 11 11 11 12 12 12 11 10 11 11 11 12 13 14 14 13 10 10 12 14 14 13 13 12 10 10 10 9 9 8 6 5 4 5 8 8 7 7 7 5 4 5 6 6 6 6 6 5 4 4 5 6 7 6 8 10 11 11 10 10 9 6 3 3 6
10 9 9 9 9 9 8 8 8 9 9 10 11 11 11 12 11 11 10 10 11 11 11 11 10 11 11 12 11 10 10 11 12 11 10 10 12 13 13 12 12 13 13 12 11 10 10 9 9 9 8 6 4 1 2 2 4 7 7 6 7 8 8 6 5 5 5 5 5 4 4 6 8 9 9 8 8 8 8 8 9 6 2 3 3 3 4
11 11 11 10 10 9 8 8 8 8 9 9 10 10 9 9 9 9 9 9 9 9 9 10 10 10 10 10 10 10 10 11 11 10 8 6 7 9 11 12 12 12 12 11 10 9 9 8 8 7 6 3 4 6 6 3 2 5 5 2 2 3 7 8 8 8 8 7 7 7 9 9 9 8 5 4 3 1 1 2 3 1 4 5 4 4 5
11 12 11 10 9 9 10 9 9 10 10 9 9 9 8 7 7 7 7 7 7 8 9 9 9 9 9 9 10 11 11 10 11 12 10 7 6 7 8 10 10 11 11 10 10 8 7 6 6 6 5 4 8 11 8 2 1 3 3 1 4 5 3 2 3 3 3 5 6 7 6 6 7 7 3 1 3 4 6 6 4 3 4 4 4 4 4
10 11 10 9 9 10 10 10 11 11 9 7 6 7 8 8 7 7 7 7 6 4 4 6 8 9 10 10 10 10 10 9 10 13 11 8 7 7 7 9 10 9 8 6 6 6 5 4 5 6 5 5 8 11 8 4 4 5 4 2 3 3 2 1 0 1 1 2 1 2 4 3 1 4 3 2 3 2 3 3 2 1 1 0 2 4 4
10 10 11 11 11 11 11 11 10 8 6 7 8 8 10 11 11 12 13 11 6 3 3 5 9 11 12 12 11 11 11 9 9 11 13 12 10 8 7 8 9 9 8 4 1 2 3 5 5 5 6 5 7 9 9 6 4 3 2 1 2 3 3 2 2 2 4 5 4 2 2 3 3 4 4 2 2 3 2 3 4 5 7 9 11 10 8
11 11 13 14 14 13 12 11 8 6 7 10 11 12 12 12 12 12 14 14 10 7 8 11 11 12 14 14 13 13 14 13 12 12 14 14 13 11 8 5 5 6 8 7 4 1 2 3 3 3 4 5 5 7 8 8 7 6 5 4 2 2 4 4 1 1 1 3 3 5 6 6 6 5 4 4 5 6 8 9 9 5 4 5 7 7 8
11 10 11 11 12 12 11 10 8 8 10 11 11 11 12 11 9 8 11 13 12 11 11 12 11 12 14 13 11 10 11 12 13 13 13 12 13 13 11 9 7 7 7 7 7 6 3 2 2 4 4 4 4 5 6 7 8 9 9 7 5 4 5 5 4 4 5 6 5 4 6 7 8 8 7 7 7 8 9 8 6 3 4 4 4 6 8
8 9 9 10 10 11 12 12 11 11 11 12 12 12 12 11 9 8 10 12 12 11 10 10 11 12 12 11 10 10 10 10 11 12 12 12 13 13 12 11 13 12 8 6 7 7 4 4 5 7 6 5 5 6 6 6 7 8 10 11 10 8 7 7 7 6 6 7 8 9 9 8 9 9 9 9 10 10 9 7 6 5 6 7 8 8 9
10 11 11 10 10 12 13 14 14 13 12 12 12 12 12 11 11 9 10 11 11 9 8 9 11 13 13 13 12 11 11 11 11 11 11 12 14 15 14 13 13 14 12 11 12 11 8 5 5 6 7 5 5 7 6 7 8 8 9 12 13 11 9 8 8 8 8 9 11 12 12 11 11 11 10 10 11 11 11 10 9 9 9 10 10 10 10
Wind_Direction
225 231 232 231 227 221 222 224 221 219 222 228 231 230 227 225 229 242 232 207 223 241 245 248 238 216 221 213 181 190 221 246 250 203 155 153 158 156 158 164 168 173 176 174 174 181 184 183 186 189 188 189 193 193 192 195 195 190 187 189 187 185 188 192 192 192 194 194 195 196 196 198 200 202 204 206 206 206 207 208 209 209 208 207 204 202 202
219 225 232 238 241 233 224 225 228 225 221 224 231 235 232 229 232 242 243 226 219 229 238 248 252 229 211 219 200 189 206 236 253 217 167 173 175 159 153 160 166 172 176 176 176 177 183 188 187 188 188 187 191 193 191 194 197 191 185 187 188 187 189 191 191 191 192 194 195 196 197 198 201 203 205 206 207 207 209 210 210 209 207 205 204 203 201
225 221 224 230 239 244 239 232 229 232 231 224 223 230 235 235 232 234 240 243 238 236 239 246 251 246 232 227 216 206 205 222 248 241 204 204 192 162 161 172 172 174 180 183 186 183 184 190 189 190 190 187 190 195 194 194 198 193 183 184 189 191 191 190 190 190 191 193 194 196 198 200 203 205 206 207 207 208 209 211 211 210 207 204 203 202 200
235 229 226 224 227 239 248 246 234 229 234 234 226 220 223 233 241 239 238 240 237 232 233 240 245 244 241 237 232 229 211 207 227 237 232 241 228 166 169 179 172 172 181 186 188 187 186 188 189 190 191 188 189 196 197 196 197 195 186 184 189 192 192 191 190 190 191 191 193 195 198 201 204 206 208 208 209 211 211 211 210 208 206 204 201 200 199
233 235 235 227 222 229 237 241 239 233 231 237 239 230 222 225 232 241 244 244 247 241 234 235 238 238 239 234 231 237 231 212 218 225 222 234 250 217 184 178 175 178 185 187 185 185 185 186 189 190 191 191 192 197 200 196 195 197 191 184 187 190 190 189 189 189 189 188 190 194 198 201 204 205 205 206 209 209 208 206 204 201 201 202 200 199 201
228 232 236 234 226 229 229 227 238 245 243 240 238 233 231 229 227 228 235 238 244 254 254 249 241 234 239 243 232 232 237 230 218 223 220 214 226 238 214 180 177 183 184 183 181 179 183 185 187 189 191 194 196 199 202 198 195 198 196 185 184 186 185 185 187 186 185 185 187 191 194 197 199 197 198 202 204 202 199 198 198 197 198 203 206 206 206
228 225 230 234 227 230 243 240 238 244 250 254 252 241 233 232 230 230 235 238 231 227 245 259 265 260 261 272 273 249 242 241 232 232 235 214 210 227 221 175 172 179 176 175 176 178 182 184 183 184 188 194 197 198 202 200 195 198 199 187 181 182 180 179 178 175 175 179 184 187 189 191 192 194 198 202 201 196 193 191 194 196 198 203 208 209 207
227 218 218 230 239 247 250 247 242 239 244 253 260 257 248 244 245 249 267 295 287 255 240 240 244 258 263 264 271 268 256 248 240 238 244 236 217 215 209 180 171 174 173 173 175 179 182 179 179 184 188 193 196 197 200 200 196 197 199 186 175 173 168 165 166 167 170 173 174 177 180 184 190 196 201 204 202 199 195 192 194 198 198 199 200 201 204
217 226 224 228 257 260 243 239 239 235 234 240 259 271 264 264 276 285 308 319 301 296 288 258 234 226 238 245 249 255 256 251 245 244 245 247 244 231 219 203 178 169 173 176 173 174 178 180 183 187 189 190 193 195 196 195 192 192 191 179 168 164 159 156 159 165 169 170 168 170 175 179 186 194 198 199 202 202 198 196 194 190 188 191 196 197 200
206 220 231 227 235 236 228 229 223 188 145 97 45 326 279 278 297 296 300 305 293 302 321 312 277 229 223 233 232 240 247 243 240 244 245 247 255 256 247 236 202 173 172 173 171 172 179 185 187 187 188 188 189 191 190 185 181 179 177 170 165 160 156 158 160 162 166 170 171 173 176 180 183 188 193 197 201 202 201 201 200 195 193 196 196 193 194
208 210 221 224 230 227 220 226 216 189 168 123 55 301 270 289 321 311 309 312 295 293 322 331 322 282 237 236 231 238 252 246 235 234 237 238 244 250 252 250 225 180 170 171 171 175 181 187 188 186 186 186 186 189 185 176 173 172 166 164 165 160 154 156 157 158 164 170 173 174 178 184 189 192 195 198 201 201 200 200 199 198 200 198 191 189 194
225 222 226 228 234 223 203 222 208 182 151 115 158 251 247 2 7 359 353 342 335 334 336 336 325 304 278 266 248 236 249 256 247 237 247 255 243 232 243 251 219 164 161 168 171 178 183 187 188 184 181 183 187 188 179 170 173 174 165 163 165 160 151 150 154 161 168 170 171 173 176 182 188 190 188 187 187 187 187 192 194 194 194 191 186 188 196
229 229 232 241 242 177 147 188 178 145 128 156 210 237 260 21 2 8 1 341 349 356 345 336 318 302 303 303 290 255 241 243 247 327 355 317 279 228 226 239 189 147 153 169 176 184 187 188 186 180 179 183 185 183 175 170 175 175 166 162 162 157 151 147 150 158 164 165 166 170 175 179 182 184 181 180 179 177 179 188 193 190 184 180 181 190 197
224 225 230 245 247 184 169 195 179 152 175 214 213 206 55 5 341 351 351 342 352 352 337 330 319 309 311 313 312 302 277 256 226 66 19 326 310 267 229 214 171 153 159 170 179 185 186 186 183 176 176 179 177 174 172 170 171 167 160 156 154 152 150 148 147 153 161 165 167 170 173 175 176 177 179 180 180 180 181 183 182 180 178 177 181 187 190
220 223 223 229 237 197 180 190 189 185 203 224 53 52 44 22 360 349 342 349 360 352 341 339 334 326 325 322 324 331 319 299 287 91 74 317 328 317 286 214 160 160 164 170 182 186 183 183 180 174 172 169 163 164 166 165 163 156 150 149 148 149 152 153 154 159 163 165 166 166 169 172 172 172 174 175 176 178 181 182 179 176 173 173 177 177 175
222 224 225 227 255 244 213 199 197 200 190 62 45 25 25 31 18 5 358 3 10 5 355 354 357 357 352 342 341 353 343 317 288 145 144 172 123 308 289 251 170 167 169 171 181 182 179 179 178 173 167 156 150 154 156 154 150 144 141 142 143 147 153 153 154 155 156 157 158 161 166 168 167 169 172 173 175 178 183 183 178 171 167 168 174 174 169
252 243 246 278 302 265 217 197 198 187 138 71 39 23 29 29 24 26 25 18 17 14 6 7 13 12 9 1 356 3 358 340 326 312 217 181 167 215 249 235 189 177 172 166 171 172 170 167 161 157 152 145 141 145 144 141 139 137 137 138 139 142 143 142 144 147 146 146 148 155 163 164 163 167 170 169 168 167 169 169 163 160 163 168 175 176 167
308 22 57 38 348 331 172 159 144 148 114 67 41 33 35 39 41 40 37 36 37 28 19 21 22 11 7 9 10 14 11 358 350 346 335 316 208 249 254 225 193 178 170 169 167 157 145 135 128 131 137 137 137 137 137 137 138 138 137 135 134 135 135 137 142 144 140 139 140 146 157 163 162 162 159 153 151 150 151 154 155 159 163 164 172 181 180
333 13 25 54 60 40 52 106 90 80 80 69 57 54 53 55 56 50 41 38 41 41 35 32 26 16 6 356 2 26 24 10 1 354 344 352 4 340 289 236 202 175 164 165 155 138 126 124 126 132 136 133 130 132 135 138 139 136 134 132 131 133 135 139 144 145 142 141 141 147 161 168 162 153 150 147 144 147 158 164 164 169 174 173 177 183 190
59 33 348 30 69 70 65 72 67 67 75 77 76 76 72 64 60 54 48 44 40 38 39 37 33 27 13 353 355 23 28 13 1 350 349 15 18 296 251 223 180 148 143 145 134 126 127 130 131 132 130 127 130 134 139 141 137 132 132 132 131 134 137 139 142 145 144 143 146 157 172 176 165 154 156 155 149 154 175 182 176 177 180 180 180 180 187
70 134 307 340 50 73 81 76 63 57 63 68 72 77 77 73 67 60 54 52 46 40 40 40 36 32 22 6 5 22 31 14 346 319 320 52 168 226 212 111 93 99 109 116 115 116 122 126 126 124 125 129 134 136 136 136 131 128 130 131 132 136 139 139 143 145 144 149 157 163 162 153 143 144 156 159 153 154 164 170 173 180 180 179 182 181 183
242 161 187 286 33 72 76 66 60 60 64 64 66 69 71 71 70 64 59 53 46 40 38 36 34 35 31 17 11 16 24 14 336 304 292 109 130 127 85 76 74 77 85 93 98 102 109 114 116 117 122 128 131 129 128 128 127 127 130 132 136 140 141 144 148 149 150 158 163 158 145 136 129 125 129 144 152 154 145 137 152 169 167 159 161 152 151
263 152 124 108 82 87 78 67 66 67 68 68 67 65 65 66 63 61 60 53 43 37 34 31 28 28 32 35 28 17 5 354 349 343 339 355 46 68 69 71 73 71 72 78 81 86 96 105 111 116 121 124 123 122 123 127 128 131 134 138 142 146 149 152 154 155 158 161 157 146 143 144 138 126 117 121 136 147 146 136 141 154 155 153 147 116 106
274 156 148 141 115 105 96 84 78 72 67 72 71 64 62 63 61 59 59 53 46 42 35 32 28 18 13 28 42 34 8 345 346 14 11 2 26 54 64 70 77 77 74 76 79 85 93 98 104 112 116 116 117 120 125 130 134 139 144 148 150 152 153 153 154 158 161 160 154 146 145 147 145 137 130 122 121 130 142 147 151 155 160 170 170 153 147
254 138 140 130 113 108 103 90 84 80 76 78 76 68 64 62 61 60 58 51 47 43 36 35 33 19 8 11 22 36 33 356 340 1 45 39 36 49 61 68 75 80 82 82 83 90 94 92 94 100 105 108 114 122 129 134 139 146 152 153 151 151 148 147 153 162 164 159 155 151 148 148 149 148 145 138 130 132 140 152 166 172 174 181 177 163 161
225 105 102 99 101 106 107 94 82 76 74 79 84 82 75 69 64 62 59 52 45 41 35 30 27 19 14 11 11 23 32 8 345 353 31 49 42 43 53 64 73 79 86 90 92 94 96 95 96 100 106 110 117 124 131 139 146 152 157 152 145 145 145 148 157 166 160 153 153 149 147 151 156 159 163 165 160 156 153 155 166 179 184 184 179 169 159
205 136 104 95 88 86 88 88 83 75 69 71 75 78 80 80 74 67 62 56 47 40 33 25 19 17 15 11 8 13 22 15 359 359 18 36 36 31 31 42 62 73 74 80 91 96 98 102 105 106 111 119 125 129 136 143 149 155 155 142 135 138 143 151 163 166 156 155 155 148 147 155 161 166 177 182 171 169 173 172 166 163 164 169 171 170 166
129 124 103 99 98 92 89 89 86 79 70 64 64 62 64 76 77 68 61 55 47 42 34 22 15 13 13 9 5 4 11 14 8 4 12 23 29 26 17 14 38 72 73 72 86 95 100 109 113 110 112 122 128 130 136 144 146 146 144 139 137 139 145 156 165 160 150 153 152 143 144 153 159 170 184 183 169 169 179 175 159 150 155 163 165 166 171
84 93 92 96 102 104 101 96 88 81 74 69 69 63 53 58 65 62 56 51 44 39 34 24 14 9 9 10 5 357 1 9 4 358 7 19 26 27 17 9 21 61 75 74 86 96 96 98 102 107 116 129 134 135 139 143 138 133 135 140 141 142 146 155 162 151 144 148 149 144 148 156 164 176 184 177 168 171 173 165 155 152 158 162 160 158 165
55 74 85 92 94 94 93 90 86 84 81 75 71 69 63 62 62 57 54 54 46 36 30 24 16 10 6 7 3 353 355 2 356 350 1 13 21 27 25 18 19 39 56 55 70 99 101 95 97 107 122 136 141 141 142 140 137 136 136 137 140 143 146 153 156 148 142 144 147 150 157 163 169 178 183 180 181 177 163 153 153 153 155 160 159 159 164
56 54 57 70 81 84 83 82 81 81 81 78 74 71 68 68 68 63 57 54 48 35 23 16 16 13 3 1 3 356 348 344 340 345 360 10 16 24 28 24 19 16 11 12 22 58 98 102 103 110 127 142 144 144 144 142 138 133 130 134 142 149 148 148 148 144 140 140 144 152 165 169 169 175 180 185 191 178 152 146 152 153 153 158 161 163 168
88 77 63 61 68 71 72 74 75 73 72 73 72 69 69 72 74 72 65 61 57 43 20 8 5 360 349 343 344 344 338 329 328 337 354 10 19 23 20 15 12 4 354 354 359 12 69 105 105 103 129 146 141 140 147 145 132 125 129 135 140 141 140 141 141 141 141 141 142 152 167 170 168 174 179 183 188 171 147 144 150 152 154 159 161 168 173
82 79 69 60 60 64 64 62 63 65 65 65 65 66 69 73 76 78 82 83 82 71 48 1 321 314 317 317 315 321 337 349 334 335 350 10 21 21 12 2 358 355 351 348 345 349 30 103 107 92 124 145 145 147 152 148 137 132 131 131 131 133 137 143 143 140 141 145 150 160 169 169 169 174 174 169 169 160 149 150 156 156 156 159 164 174 180
69 72 68 61 60 64 63 58 59 64 64 62 63 63 63 66 71 76 89 108 120 117 118 233 277 292 307 304 286 307 347 10 350 341 359 10 18 19 7 349 338 342 351 346 335 336 21 109 121 115 122 138 149 153 152 148 142 137 132 132 135 136 137 140 142 144 151 158 160 164 167 166 166 168 163 156 155 155 156 163 165 156 149 151 163 179 187
74 75 73 68 65 64 61 58 60 63 62 62 64 62 59 61 64 62 59 69 111 129 137 161 253 322 343 344 359 91 80 55 18 2 3 0 2 7 358 342 345 356 354 331 327 348 43 86 117 141 145 149 154 153 150 146 139 131 128 134 138 134 131 137 142 147 154 156 154 158 164 161 155 153 150 148 152 158 165 172 167 147 139 142 157 177 184
69 68 67 63 60 57 56 58 61 63 63 63 62 60 60 62 62 62 58 49 51 76 99 97 74 66 44 17 25 40 46 47 44 25 6 357 3 36 81 73 43 58 92 359 31 48 55 58 67 101 128 124 118 119 126 131 127 121 124 132 136 137 142 145 135 126 132 137 135 133 133 128 126 132 138 141 149 156 159 167 170 150 141 144 159 176 176
70 68 65 61 59 58 56 56 63 68 69 66 60 56 56 55 53 56 60 52 39 38 49 55 50 42 44 57 62 51 41 42 44 38 29 25 32 47 59 56 48 53 64 50 50 55 55 55 64 76 84 86 86 87 101 120 124 123 129 136 137 138 143 139 127 127 135 132 120 118 118 117 119 130 138 143 153 160 160 167 185 172 148 144 153 168 174
79 75 71 68 67 69 70 70 70 69 67 64 60 58 57 54 49 49 49 41 32 31 38 42 42 36 28 34 49 53 48 47 47 49 50 49 48 51 53 48 42 40 41 42 45 47 50 57 67 74 79 85 88 91 103 117 123 125 135 139 134 133 136 136 134 136 132 118 115 125 132 134 137 146 154 157 160 166 170 172 183 183 161 153 157 165 174
92 92 89 84 78 75 77 78 76 72 71 70 66 64 63 60 57 57 54 44 36 37 38 37 38 42 41 38 42 45 43 46 56 64 65 66 65 64 59 51 44 42 43 45 45 44 47 60 73 79 82 86 88 92 100 105 97 86 91 100 104 116 130 134 132 128 121 117 133 147 148 148 152 160 169 171 169 176 180 172 170 180 181 173 171 173 177
103 101 98 94 91 86 78 72 71 71 72 71 68 68 68 64 58 57 59 55 50 49 46 39 37 45 53 55 55 52 47 46 51 55 59 68 77 76 66 53 46 45 44 45 48 53 59 67 80 92 96 92 86 94 105 105 94 88 92 91 90 109 133 140 138 138 139 147 162 164 158 159 167 172 177 185 192 193 182 165 170 193 208 209 203 196 192
89 94 96 93 88 85 80 76 71 66 64 64 67 68 68 68 66 62 60 61 62 61 58 54 49 49 55 62 65 65 63 62 61 56 51 52 59 68 66 52 41 35 31 32 40 53 67 75 84 97 103 99 97 112 127 125 117 120 129 132 138 165 175 165 158 157 159 163 171 175 176 179 185 192 200 205 203 189 176 179 196 210 219 221 214 202 195
76 77 81 82 81 81 80 80 81 77 69 65 65 63 62 63 66 66 64 63 62 60 60 60 58 53 52 57 61 61 60 66 72 71 66 61 55 54 63 58 46 41 41 44 45 48 55 62 70 82 92 96 98 106 127 143 145 140 139 151 170 188 190 179 174 178 181 180 183 195 210 210 205 201 201 199 197 198 199 203 211 218 224 229 223 205 197
99 91 86 83 81 81 81 81 82 81 75 69 65 63 60 60 62 64 65 64 61 57 55 55 57 58 55 51 50 51 52 54 60 68 71 69 61 54 55 59 55 52 55 60 60 56 52 51 57 67 83 103 112 93 84 131 151 144 135 146 164 174 179 184 188 193 198 200 201 212 234 237 216 199 190 192 209 216 211 207 214 224 227 233 240 217 212
93 90 89 89 87 88 91 92 88 83 81 79 76 73 69 64 60 60 63 65 63 60 55 49 51 59 61 57 52 48 45 44 46 51 58 63 58 48 44 47 49 47 49 57 61 58 54 55 60 66 77 102 127 94 334 262 168 132 124 152 179 176 174 180 185 188 196 202 195 189 201 213 216 214 208 204 215 230 229 222 226 229 176 89 55 14 351
82 82 84 88 91 90 87 84 86 91 93 89 85 87 91 86 74 63 62 65 65 62 58 52 48 50 58 67 69 62 56 57 58 53 50 57 56 43 41 46 44 34 32 45 56 57 58 61 61 56 53 40 6 352 335 294 177 122 118 187 231 165 159 171 178 183 191 196 190 188 196 208 221 234 233 202 184 162 97 163 215 316 48 63 47 14 8
81 84 85 85 85 83 76 72 74 76 74 71 71 73 76 80 83 82 82 80 70 59 60 63 55 43 46 62 66 56 50 54 54 48 47 68 87 73 61 61 51 30 24 38 51 55 59 60 44 26 14 349 345 353 358 358 71 78 89 57 11 22 50 160 177 184 199 203 202 207 211 211 217 228 233 103 84 73 78 92 97 56 47 54 36 2 351
82 86 86 85 87 88 83 73 70 67 60 59 65 52 32 33 50 64 73 88 103 108 91 80 70 58 57 65 64 53 46 44 39 30 29 48 79 77 60 52 47 36 28 39 53 48 39 29 9 357 354 345 343 348 353 356 359 9 24 41 13 353 318 222 100 6 299 250 243 323 353 4 264 235 227 118 101 83 53 55 65 87 87 265 253 245 238
74 74 68 64 68 73 68 61 62 65 55 49 44 25 12 22 36 32 26 34 67 125 115 82 78 73 66 61 53 45 42 42 34 22 18 25 42 53 47 45 48 39 21 10 76 80 29 7 349 341 342 344 342 340 338 336 340 345 320 289 321 319 291 259 185 189 223 225 214 225 291 305 281 272 279 267 198 192 205 226 231 230 230 230 226 221 222
56 63 63 58 53 51 50 48 47 42 36 36 31 17 12 27 44 36 18 14 21 36 44 47 51 51 50 47 42 39 39 39 35 28 20 14 14 16 18 31 53 35 5 349 341 327 330 336 332 323 320 318 319 322 322 322 324 320 300 281 261 273 285 293 341 61 312 274 233 210 219 230 236 246 253 243 230 226 225 225 230 244 260 242 234 247 270
42 50 60 61 53 47 46 46 40 32 30 29 26 18 15 21 36 43 29 16 10 17 30 32 26 24 28 30 28 28 29 29 27 26 20 6 357 355 354 353 356 353 343 336 335 326 300 263 273 291 288 280 281 288 293 299 307 310 308 299 281 258 269 292 320 341 324 309 295 267 243 236 239 248 249 239 241 250 248 240 244 309 351 333 287 267 271
54 51 57 62 58 52 48 43 37 32 29 24 21 21 16 8 9 33 43 32 15 9 16 19 13 7 5 5 5 7 8 6 9 13 9 359 349 342 337 342 353 355 346 334 335 331 304 235 242 253 249 251 273 282 278 279 286 292 297 298 292 275 260 262 268 268 267 271 278 281 276 262 255 255 250 244 251 261 265 266 274 284 287 285 279 264 261
60 50 48 55 59 55 49 39 29 23 23 25 22 16 8 3 4 14 24 23 15 7 7 7 359 350 347 350 355 356 352 353 360 3 358 351 347 342 337 341 351 354 350 343 336 331 330 329 307 268 237 241 285 296 285 275 273 272 276 286 289 286 281 276 271 266 260 252 250 253 259 266 273 274 267 258 257 256 253 256 264 264 258 261 268 268 267